This is the latest recevied weather packets stored in our database for station/object W5CRT. If no packets are shown the sender has not sent any weather packets the latest 10 day(s).
| Time | Temp. | Humidity | Pressure | Rain* | Wind** | Luminosity | Snow |
|---|---|---|---|---|---|---|---|
| 1778086088 | 12.78° C | 89% | 1012.7 hPa | 0 mm | - | 151 W/m² | - |
| 1778085784 | 12.78° C | 89% | 1012.5 hPa | 0 mm | - | 169 W/m² | - |
| 1778085481 | 12.78° C | 89% | 1013 hPa | 0 mm | - | 165 W/m² | - |
| 1778085176 | 12.78° C | 90% | 1013.1 hPa | 0 mm | - | 242 W/m² | - |
| 1778084872 | 12.78° C | 90% | 1012.9 hPa | 0 mm | - | 361 W/m² | - |
| 1778084570 | 12.22° C | 91% | 1012.9 hPa | 0 mm | - | 350 W/m² | - |
| 1778084267 | 12.22° C | 91% | 1012.6 hPa | 0 mm | - | 277 W/m² | - |
| 1778083965 | 12.22° C | 91% | 1011.7 hPa | 0 mm | - | 155 W/m² | - |
| 1778083662 | 12.22° C | 91% | 1012.2 hPa | 0.51 mm | - | 252 W/m² | - |
| 1778083358 | 11.67° C | 90% | 1011.8 hPa | 2.29 mm | - | 225 W/m² | - |
| 1778083057 | 11.67° C | 89% | 1011.1 hPa | 3.56 mm | - | 258 W/m² | - |
| 1778082753 | 12.22° C | 87% | 1013.8 hPa | 8.38 mm | - | 62 W/m² | - |
| 1778081621 | 12.78° C | 81% | 1013.5 hPa | 0 mm | - | 14 W/m² | - |
| 1778081318 | 12.78° C | 82% | 1013.2 hPa | 0 mm | - | 44 W/m² | - |
| 1778081015 | 12.78° C | 81% | 1013.2 hPa | 0 mm | - | 45 W/m² | - |
| 1778080714 | 12.78° C | 81% | 1012.6 hPa | 0 mm | - | 77 W/m² | - |
| 1778080410 | 12.78° C | 80% | 1013 hPa | 0 mm | - | 37 W/m² | - |
| 1778080107 | 12.78° C | 80% | 1011.9 hPa | 0 mm | - | 68 W/m² | - |
| 1778079804 | 12.78° C | 81% | 1011.8 hPa | 0 mm | - | 127 W/m² | - |
| 1778079500 | 12.78° C | 80% | 1012.4 hPa | 0 mm | - | 76 W/m² | - |
| 1778079197 | 12.78° C | 80% | 1012.9 hPa | 0 mm | - | 63 W/m² | - |
| 1778078895 | 12.78° C | 80% | 1013.2 hPa | 0 mm | - | 74 W/m² | - |
| 1778078591 | 12.78° C | 81% | 1013.2 hPa | 0 mm | - | 84 W/m² | - |
| 1778078290 | 12.78° C | 82% | 1012.6 hPa | 0 mm | - | 91 W/m² | - |
| 1778077986 | 12.78° C | 81% | 1012.4 hPa | 0 mm | - | 100 W/m² | - |
* Rain latest hour (hover to see other rain measurements)
** Current wind speed in m/s (hover to see current wind gust speed)